Content
SEND FEEDBACK

Daily
Averages
Monthly
Summary
United States of America

INARAJAN, GUAM


Home > North America > United States > Guam
Elevation: 280 feet     Latitude: 13 18N     Longitude: 144 44E

WEATHER
 
SELECT A DAY
Number of Records: 341,964;   Date Range: 1/1/95 - 7/26/14
 
SHARE

PRINT THIS DATA

[ ← Previous Day ]
WEATHER ALMANAC - MAY 13, 2014
[ Next Day → ]
[ °C ]   °F
Weather ElementAverageHighLow
Temperature81 °F86 °F (11:13 am)78.6 °F (3:58 am)
Dewpoint74.3 °F75.2 °F (12:28 am)68.4 °F (1:58 pm)
Humidity80.2 %89 % (12:28 am)66 % (12:58 pm)
Barometer29.88 in29.94 in (8:53 am)29.81 in (3:58 pm)
Wind Speed8.4 mph11.5 mph (1:58 pm)
Wind Gust17.3 mph (1:58 pm)
Weather ElementAverage
Visibility10 mi
Wind DirectionE (87.8 °)

Weather ElementTotal
Precipitation---
Cooling Degree Days17.3 (Base 65)
Growing Degree Days32.3 (Base 50)
Averaged from 46 records on May 13, 2014
WEATHER CONDITIONS BREAKOUT
WIND DIRECTION BREAKOUT
WEATHER BY HOUR - MAY 13, 2014
[ °C ]   °F
Local TimeTemperatureDewpointHumidityBarometerVisibilityWind DirectionWind SpeedGust SpeedPrecipitationEventsConditions
12:28 AM78.8 °F75.2 °F89 %29.93 in10.0 miESE (110°)4.6 mphMostly Cloudy
12:58 AM79.3 °F75.0 °F87 %29.89 in10.0 miESE (110°)8.1 mph0.00 inMostly Cloudy
1:58 AM79.2 °F74.3 °F85 %29.88 in10.0 miEast (100°)8.1 mphPartly Cloudy
2:58 AM78.8 °F74.3 °F86 %29.86 in10.0 miEast (100°)6.9 mphScattered Clouds
3:08 AM78.8 °F75.2 °F89 %29.89 in10.0 miEast (100°)6.9 mphMostly Cloudy
3:23 AM78.8 °F75.2 °F89 %29.89 in10.0 miESE (110°)5.8 mphMostly Cloudy
3:33 AM78.8 °F73.4 °F83 %29.89 in10.0 miEast (100°)6.9 mphScattered Clouds
3:58 AM78.6 °F74.1 °F86 %29.86 in10.0 miESE (110°)5.8 mphScattered Clouds
4:53 AM78.8 °F75.2 °F89 %29.90 in10.0 miESE (110°)4.6 mphMostly Cloudy
4:58 AM78.8 °F74.5 °F87 %29.87 in10.0 miESE (110°)5.8 mphMostly Cloudy
5:03 AM78.8 °F73.4 °F83 %29.90 in10.0 miESE (110°)6.9 mphMostly Cloudy
5:08 AM78.8 °F73.4 °F83 %29.90 in10.0 miEast (100°)5.8 mphMostly Cloudy
5:13 AM78.8 °F75.2 °F89 %29.90 in10.0 miEast (90°)8.1 mphMostly Cloudy
5:23 AM78.8 °F75.2 °F89 %29.90 in10.0 miEast (100°)6.9 mphMostly Cloudy
5:33 AM78.8 °F75.2 °F89 %29.90 in10.0 miEast (100°)5.8 mphMostly Cloudy
5:43 AM78.8 °F75.2 °F89 %29.90 in10.0 miEast (100°)6.9 mphMostly Cloudy
5:58 AM78.6 °F74.7 °F88 %29.88 in10.0 miEast (100°)4.6 mphMostly Cloudy
6:03 AM78.8 °F75.2 °F89 %29.91 in10.0 miEast (80°)5.8 mphScattered Clouds
6:58 AM79.9 °F74.1 °F82 %29.91 in10.0 miEast (100°)6.9 mphClear
7:58 AM81.5 °F74.7 °F80 %29.91 in10.0 miESE (110°)6.9 mphScattered Clouds
8:53 AM84.2 °F75.2 °F74 %29.94 in10.0 miEast (90°)8.1 mphMostly Cloudy
8:58 AM83.7 °F74.3 °F73 %29.91 in10.0 miEast (80°)9.2 mphMostly Cloudy
9:13 AM84.2 °F75.2 °F74 %29.94 in10.0 miENE (60°)10.4 mphScattered Clouds
9:58 AM83.7 °F73.4 °F71 %29.91 in10.0 miENE (60°)9.2 mphClear
10:58 AM85.1 °F73.8 °F69 %29.91 in10.0 miENE (60°)8.1 mphScattered Clouds
11:13 AM86.0 °F75.2 °F70 %29.92 in10.0 miNE (40°)10.4 mphMostly Cloudy
11:28 AM84.2 °F75.2 °F74 %29.92 in10.0 miNNE (20°)10.4 mphScattered Clouds
11:58 AM85.5 °F74.7 °F70 %29.89 in10.0 miNE (50°)9.2 mphMostly Cloudy
12:58 PM85.6 °F73.2 °F66 %29.88 in10.0 miNNE (20°)10.4 mphScattered Clouds
1:58 PM79.9 °F68.4 °F68 %29.86 in10.0 miNNE (30°)11.5 mph17.3 mphScattered Clouds
2:58 PM86.0 °F75.2 °F70 %29.83 in10.0 miENE (70°)11.5 mphMostly Cloudy
3:28 PM84.2 °F73.4 °F70 %29.85 in10.0 miENE (60°)10.4 mphMostly Cloudy
3:38 PM84.2 °F73.4 °F70 %29.84 in10.0 miEast (90°)9.2 mphMostly Cloudy
3:58 PM83.7 °F74.8 °F75 %29.81 in10.0 miEast (90°)8.1 mphMostly Cloudy
4:28 PM82.4 °F75.2 °F79 %29.83 in10.0 miEast (100°)9.2 mphMostly Cloudy
4:58 PM82.8 °F74.7 °F76 %29.81 in10.0 miEast (90°)10.4 mphMostly Cloudy
5:03 PM82.4 °F75.2 °F79 %29.83 in10.0 miEast (100°)11.5 mphScattered Clouds
5:58 PM81.5 °F74.1 °F78 %29.81 in10.0 miESE (110°)11.5 mphClear
6:58 PM80.2 °F73.8 °F81 %29.83 in10.0 miEast (100°)10.4 mphPartly Cloudy
7:19 PM80.6 °F73.4 °F79 %29.87 in10.0 miEast (100°)10.4 mphRainLight Rain
7:21 PM80.6 °F73.4 °F79 %29.87 in10.0 miEast (90°)11.5 mphScattered Clouds
7:58 PM80.1 °F73.9 °F81 %29.86 in10.0 miEast (100°)10.4 mph0.00 inScattered Clouds
8:58 PM79.3 °F73.9 °F83 %29.87 in10.0 miEast (90°)9.2 mphClear
9:58 PM79.3 °F74.1 °F84 %29.88 in10.0 miEast (90°)10.4 mphClear
10:58 PM79.2 °F73.8 °F83 %29.88 in10.0 miEast (90°)8.1 mphScattered Clouds
11:58 PM79.3 °F73.9 °F83 %29.86 in10.0 miESE (110°)8.1 mphScattered Clouds
Hourly data recorded from PGUA, located miles away from Inarajan, Guam







STORIES FROM OUR PARTNERS